NIMBUS 2 DEB, 28612

Orbit data source: Space-Track

NIMBUS 2 DEB, 28612 is space debris in SSO originally from a launch on Sun, 15 May 1966 UTC launched from the Air Force Western Test Range (AFWTR). Debris objects in space refer to the collection of defunct objects orbiting the Earth. Examples of debris include non-operational satellites, rocket bodies, and fragments generated from explosions, collisions, or faulty payload assembly.

Loading next visibility...
Identifier
28612, 1966-040AB
Orbit
SSO
Country
Flag of USUS
Related business
Manufacturer
Unknown
Mission
Spacecraft
Bus & Motor
Unknown
Mass
Unknown
Launch date (UTC)
1966-05-15 (59 years ago)
Launch vehicle
Unknown
Launch site
Air Force Western Test Range (AFWTR)
Object type
Payload
Rocket body
Debris
Shape & HBR
Unknown shape, 0.1 m
Radar Cross Section
Small (<0.1 m²)

Expand to show TLE details & history
Last TLE update: 4 days ago

TLE from 4 days ago
0 NIMBUS 2 DEB
1 28612U 66040AB  25287.87749678  .00003555  00000-0  36757-2 0  9993
2 28612 100.3773 145.7595 0045480 307.4432  69.1442 13.76171676666551
Epoch: 2025-10-14T21:03Z
TLE epoch observation values (Epoch: 2025-10-14T21:03:35.721Z)
Latitude
16.77473°
Longitude
163.05317°
Altitude
967.89 km
Speed
7.375 km/s
True Right ascension
09h 30m 26s
True Declination
16° 40' 58"
Sunlit
Object was in daylight at epoch
Visualization orbit readout
Latitude
Unknown
Longitude
Unknown
Altitude
Unknown
Speed
Unknown
Apparent Right ascension
Unknown
Apparent Declination
Unknown
Sunlit
N/A
Visualization observer readout
Local Sidereal Time
17:59:43
Azimuth
Unknown
Elevation
Unknown
Doppler factor
Unknown
Orbital elements
Apogee altitude
1,008.241 km
Perigee altitude
941.358 km
Semi-major axis
7,352.937 km
Eccentricity
0.00455
Inclination
100.3773°
RAAN
145.7595°
Arg. of periapsis
307.4432°
True anomaly
69.6322°
Mean anomaly
69.1442°
Eccentric anomaly
69.3881°
Mean motion
3.44233 °/min
Orbital period
104.58 mins
BSTAR
0.0036757
Loading maneuver chart data...
Computing Atmospheric mass density...
Loading historical data...
Loading historical data...
Loading historical data...
Loading historical data...
Loading historical data...
Loading historical data...
Loading historical data...

Documentation

Showing up to 5 results
|